Location: Malcolm X Square
(37.7810°N, 122.4297°W)
Time: 23:42:24
(UTC+00:00)

ARIANE 5 R/B - Pass Details

Date: 13 April 2024
Orbit: 747 x 793 km, 98.8° (Epoch: 21 May)

Event Time Altitude Azimuth Distance (km) Brightness Sun altitude
Rises 12:50:11 0° 18° (NNE) 3,299 6.4 -9.6°
Reaches altitude 10° 12:52:35 10° 23° (NNE) 2,367 5.7 -9.2°
Maximum altitude 12:57:42 53° 101° (E) 968 3.5 -8.2°
Drops below altitude 10° 13:02:45 10° 178° (S) 2,345 4.9 -7.3°
Sets 13:05:07 0° 182° (S) 3,265 5.6 -6.8°
